This is the latest recevied weather packets stored in our database for station/object VE3EP-1. If no packets are shown the sender has not sent any weather packets the latest 10 day(s).
| Time | Temp. | Humidity | Pressure | Rain* | Wind** | Luminosity | Snow |
|---|---|---|---|---|---|---|---|
| 1777446129 | 10.56° C | 84% | 1015 hPa | 0 mm | - | - | - |
| 1777445528 | 10.56° C | 83% | 1014.9 hPa | 0 mm | - | - | - |
| 1777444928 | 11.11° C | 83% | 1014.9 hPa | 0 mm | - | - | - |
| 1777444330 | 10.56° C | 83% | 1014.9 hPa | 0 mm | - | - | - |
| 1777443729 | 10.56° C | 82% | 1014.8 hPa | 0 mm | - | - | - |
| 1777443128 | 10.56° C | 82% | 1014.9 hPa | 0 mm | - | - | - |
| 1777442528 | 10.56° C | 82% | 1014.8 hPa | 0 mm | - | - | - |
| 1777441928 | 10° C | 83% | 1014.8 hPa | 0 mm | - | - | - |
| 1777441328 | 9.44° C | 84% | 1015.1 hPa | 0 mm | - | - | - |
| 1777440728 | 8.89° C | 83% | 1015.3 hPa | 0 mm | - | - | - |
| 1777440128 | 10° C | 81% | 1015.7 hPa | 0 mm | - | - | - |
| 1777439528 | 10.56° C | 79% | 1015.3 hPa | 0 mm | - | - | - |
| 1777438928 | 11.11° C | 78% | 1015.2 hPa | 0 mm | - | - | - |
| 1777438328 | 11.11° C | 78% | 1015.1 hPa | 0 mm | - | - | - |
| 1777437728 | 11.11° C | 78% | 1015.1 hPa | 0 mm | - | - | - |
| 1777437128 | 11.11° C | 78% | 1015 hPa | 0 mm | - | - | - |
| 1777436528 | 11.11° C | 78% | 1015 hPa | 0 mm | - | - | - |
| 1777435928 | 11.11° C | 78% | 1015.1 hPa | 0 mm | - | - | - |
| 1777435328 | 11.11° C | 77% | 1015.3 hPa | 0 mm | - | - | - |
| 1777434728 | 11.11° C | 77% | 1015.4 hPa | 0 mm | - | - | - |
| 1777434128 | 11.11° C | 76% | 1015.3 hPa | 0 mm | - | - | - |
| 1777433528 | 11.11° C | 76% | 1015.1 hPa | 0 mm | - | - | - |
| 1777432928 | 11.11° C | 75% | 1015.1 hPa | 0 mm | - | - | - |
| 1777432328 | 11.67° C | 75% | 1015.2 hPa | 0 mm | - | - | - |
| 1777431728 | 11.67° C | 74% | 1015 hPa | 0 mm | - | - | - |
* Rain latest hour (hover to see other rain measurements)
** Current wind speed in m/s (hover to see current wind gust speed)